Location: Newark
(35.5300°N, 14.3000°E)
Time: 03:01:28
(UTC+00:00)

Altair - All Passes

Search period start: 22 November 2019 00:00
Search period end: 02 December 2019 00:00
Orbit: 1502 x 1682 km, 47.2° (Epoch: 20 November)

Date Brightness Start Highest point End Pass type
(mag) Time Alt. Az. Time Alt. Az. Time Alt. Az.
22 Nov - 00:42:43 10° SW 00:52:00 87° SE 01:01:13 10° NE visible
22 Nov - 02:48:43 10° W 02:57:26 45° NNW 03:06:13 10° ENE visible
22 Nov - 04:55:18 10° WNW 05:03:57 43° N 05:12:46 10° E visible
22 Nov - 07:00:20 10° NW 07:09:39 82° NE 07:19:17 10° ESE daylight
22 Nov - 09:05:46 10° WNW 09:13:46 33° SW 09:22:01 10° S daylight
22 Nov - 22:16:24 10° S 22:23:09 23° SE 22:29:49 10° E night (unlit)
23 Nov - 00:17:34 10° SW 00:26:51 82° SE 00:36:03 10° ENE visible
23 Nov - 02:23:24 10° W 02:32:10 47° NNW 02:40:59 10° ENE visible
23 Nov - 04:30:03 10° WNW 04:38:39 42° N 04:47:25 10° ENE visible
23 Nov - 06:35:11 10° NW 06:44:28 77° NNE 06:54:02 10° ESE daylight
23 Nov - 08:40:27 10° WNW 08:48:41 36° SW 08:57:11 10° SSE daylight
23 Nov - 21:51:50 10° S 21:58:07 20° SE 22:04:17 10° E night (unlit)
23 Nov - 23:52:27 10° SW 00:01:43 76° SE 00:10:52 10° ENE visible
24 Nov - 01:58:04 10° W 02:06:54 49° NNW 02:15:46 10° NE visible
24 Nov - 04:04:48 10° WNW 04:13:22 41° N 04:22:03 10° ENE visible
24 Nov - 06:10:01 10° NW 06:19:16 73° NNE 06:28:47 10° ESE daylight
24 Nov - 08:15:10 10° WNW 08:23:35 40° SW 08:32:17 10° SSE daylight
24 Nov - 21:27:22 10° SSE 21:33:04 18° SE 21:38:41 10° E night (unlit)
24 Nov - 23:27:21 10° SW 23:36:35 71° SE 23:45:42 10° ENE visible
25 Nov - 01:32:45 10° W 01:41:39 51° NNW 01:50:33 10° NE visible
25 Nov - 03:39:32 10° WNW 03:48:04 40° N 03:56:42 10° ENE visible
25 Nov - 05:44:52 10° NW 05:54:04 69° NNE 06:03:32 10° ESE daylight
25 Nov - 07:49:54 10° WNW 07:58:29 43° SW 08:07:22 10° SSE daylight
25 Nov - 21:03:02 10° SSE 21:08:01 16° SE 21:12:57 10° E night (unlit)
25 Nov - 23:02:16 10° SW 23:11:28 65° SE 23:20:31 10° ENE night (unlit)
26 Nov - 01:07:26 10° W 01:16:25 53° NNW 01:25:21 10° NE visible
26 Nov - 03:14:16 10° WNW 03:22:46 40° N 03:31:22 10° ENE visible
26 Nov - 05:19:43 10° NW 05:28:52 65° NNE 05:38:14 10° ESE visible
26 Nov - 07:24:40 10° WNW 07:33:23 47° SW 07:42:24 10° SSE daylight
26 Nov - 20:38:55 10° SSE 20:42:59 14° ESE 20:47:01 10° E night (unlit)
26 Nov - 22:37:12 10° SW 22:46:21 60° SE 22:55:19 10° ENE night (unlit)
27 Nov - 00:42:07 10° W 00:51:10 56° NNW 01:00:10 10° NE visible
27 Nov - 02:48:59 10° WNW 02:57:29 40° N 03:06:02 10° ENE visible
27 Nov - 04:54:33 10° NW 05:03:39 61° NNE 05:12:57 10° ESE visible
27 Nov - 06:59:26 10° WNW 07:08:17 52° SW 07:17:24 10° SSE daylight
27 Nov - 09:10:30 10° WSW 09:11:33 10° WSW 09:12:36 10° SW daylight
27 Nov - 20:15:12 10° SE 20:17:58 12° ESE 20:20:41 10° ESE night (unlit)
27 Nov - 22:12:10 10° SSW 22:21:15 55° SE 22:30:07 10° ENE night (unlit)
28 Nov - 00:16:49 10° WSW 00:25:57 59° NNW 00:34:59 10° NE visible
28 Nov - 02:23:41 10° WNW 02:32:10 40° N 02:40:43 10° ENE visible
28 Nov - 04:29:23 10° NW 04:38:26 58° NNE 04:47:38 10° ESE visible
28 Nov - 06:34:14 10° WNW 06:43:10 56° SW 06:52:23 10° SSE daylight
28 Nov - 08:43:15 10° WSW 08:46:31 12° WSW 08:49:48 10° SW daylight
28 Nov - 21:47:10 10° SSW 21:56:09 51° SE 22:04:54 10° ENE night (unlit)
28 Nov - 23:51:31 10° WSW 00:00:44 62° NNW 00:09:49 10° NE visible
29 Nov - 01:58:23 10° WNW 02:06:52 40° N 02:15:24 10° ENE visible
29 Nov - 04:04:12 10° NW 04:13:12 55° NNE 04:22:19 10° E visible
29 Nov - 06:09:02 10° WNW 06:18:04 61° SW 06:27:20 10° SE daylight
29 Nov - 08:17:06 10° W 08:21:28 14° WSW 08:25:55 10° SSW daylight
29 Nov - 21:22:11 10° SSW 21:31:03 46° SE 21:39:40 10° ENE night (unlit)
29 Nov - 23:26:15 10° WSW 23:35:31 65° NNW 23:44:39 10° NE visible
30 Nov - 01:33:03 10° WNW 01:41:35 40° N 01:50:06 10° ENE visible
30 Nov - 03:39:01 10° NW 03:47:57 53° NNE 03:57:00 10° E visible
30 Nov - 05:43:51 10° WNW 05:52:56 67° SW 06:02:16 10° SE daylight
30 Nov - 07:51:14 10° W 07:56:25 16° SW 08:01:43 10° SSW daylight
30 Nov - 20:57:14 10° SSW 21:05:57 42° SE 21:14:26 10° ENE night (unlit)
30 Nov - 23:00:59 10° WSW 23:10:19 69° NNW 23:19:29 10° NE night (unlit)
01 Dec - 01:07:43 10° WNW 01:16:17 40° N 01:24:50 10° ENE visible
01 Dec - 03:13:50 10° NW 03:22:43 50° NNE 03:31:40 10° E visible
01 Dec - 05:18:41 10° WNW 05:27:48 72° SW 05:37:10 10° SE visible
01 Dec - 07:25:33 10° W 07:31:23 19° SW 07:37:20 10° SSW daylight
01 Dec - 20:32:19 10° SSW 20:40:52 38° SE 20:49:10 10° ENE night (unlit)
01 Dec - 22:35:43 10° WSW 22:45:07 74° NNW 22:54:20 10° NE night (unlit)
